Location: Tel Aviv
(32.0670°N, 34.7670°E)
Time: 01:46:11
(UTC+02:00)

Transit 4A - Pass Details

Date: 11 December 2023
Orbit: 869 x 974 km, 66.8° (Epoch: 23 February)

Event Time Altitude Azimuth Distance (km) Brightness Sun altitude
Rises 19:09:07 0° 244° (WSW) 3,658 12.0 -31.4°
Reaches altitude 10° 19:12:22 10° 260° (W) 2,714 11.2 -32.1°
Maximum altitude 19:17:02 21° 307° (NW) 2,024 10.0 -33.1°
Enters shadow 19:20:22 14° 345° (NNW) 2,394 10.1 -33.8°
